User: anonymous   Login
Location: Maiden
(35.5760°N, 81.2120°W)
Time: 08:03:46
(UTC-04:00)
Language:

Cosmos 2151 - Orbit

View from above orbital plane
View from above orbital plane
View from above satellite
View from above satellite

Ground track
Ground track

The orbit data is extracted from the following two-line orbital elements,

1 21422U 91042A   17232.92500967 +.00000235 +00000-0 +20631-4 0  9996
2 21422 082.5018 184.8431 0015962 079.4381 280.8635 14.91845710397079
Epoch (UTC): 20 August 2017 22:12:00
Eccentricity: 0.0015962
inclination: 82.5018°
perigee height: 581 km
apogee height: 603 km
right ascension of ascending node: 184.8431°
argument of perigee: 79.4381°
revolutions per day: 14.91845710
mean anomaly at epoch: 280.8635°
orbit number at epoch: 39707

The dashed part of the orbit path shows where the satellite is in the earth's shadow,  

DLR